Location: North Smoke Tower Site
(30.5430°N, 82.3390°W)
Time: 07:04:25
(UTC-04:00)

Cosmos 1980 Rocket - Visible Passes

Search period start: 07 July 2015 00:00
Search period end: 17 July 2015 00:00
Orbit: 829 x 850 km, 71.0° (Epoch: 06 July)

Date Brightness Start Highest point End Pass type
(mag) Time Alt. Az. Time Alt. Az. Time Alt. Az.
07 Jul 2.1 22:06:08 10° NNW 22:11:45 89° ENE 22:14:47 28° SSE visible
08 Jul 2.1 21:50:29 10° NNW 21:56:07 83° ENE 21:59:55 21° SSE visible
09 Jul 2.1 21:34:51 10° NNW 21:40:28 77° ENE 21:45:07 15° SSE visible
10 Jul 2.2 21:19:14 10° NNW 21:24:50 72° ENE 21:30:23 10° SSE visible
10 Jul 4.8 23:07:16 10° W 23:08:19 10° W 23:08:54 10° WSW visible
11 Jul 2.2 21:03:37 10° NNW 21:09:12 66° ENE 21:14:44 10° SSE visible
11 Jul 4.8 22:50:47 10° W 22:52:43 11° W 22:54:12 10° WSW visible
12 Jul 4.7 22:34:38 10° WNW 22:37:05 12° W 22:39:09 10° WSW visible
13 Jul 4.7 22:18:37 10° WNW 22:21:28 14° W 22:23:58 10° SW visible
14 Jul 4.7 22:02:40 10° WNW 22:05:51 15° W 22:08:43 10° SW visible
15 Jul 4.7 21:46:46 10° WNW 21:50:14 16° W 21:53:25 10° SW visible
16 Jul 4.7 21:30:54 10° WNW 21:34:37 18° WSW 21:38:04 10° SW visible
